OAL277 LEBB-LGAV

Flight info

Callsign OAL277
Flight time N/A
Altitude 34000
Route PPN M601 TURPU DCT GOSVI DCT RONKO DCT RONNY DCT SURCO DCT MARIO/N0447F350 DCT POSSY DCT GRAUS DCT ALOSU DCT GEMAS/N0449F360 M601 BCN/N0447F350 DCT DIPES DCT TOSNU DCT LAPIT DCT OSPOK DCT NOLVI DCT ORKUM/N0445F360 DCT ELSAG DCT ALG/N0445F350 DCT RUTOM UN604 ARA UY144 NEMES
Aircraft A321/M-SDE3FGHIRWY/LB1

Departure

Time N/A
Airport Bilbao Airport (LEBB)

Arrival

Time 2026-05-03 22:01
Airport Athens Eleftherios Venizelos International Airport (LGAV)
Time Latitude Longitude Altitude Speed Heading
2026-05-03 20:15 40.57604 7.61931 34138 ft 469 kts 85°
2026-05-03 20:15 40.58325 7.70411 34137 ft 469 kts 85°
2026-05-03 20:16 40.59046 7.79002 34135 ft 469 kts 85°
2026-05-03 20:16 40.59763 7.87531 34133 ft 469 kts 85°
2026-05-03 20:17 40.60478 7.96075 34128 ft 470 kts 85°
2026-05-03 20:17 40.61187 8.04621 34121 ft 471 kts 85°
2026-05-03 20:18 40.61900 8.13203 34125 ft 472 kts 85°
2026-05-03 20:18 40.62256 8.17494 34353 ft 471 kts 85°
2026-05-03 20:18 40.62555 8.21791 34545 ft 471 kts 90°
2026-05-03 20:18 40.62459 8.26083 34737 ft 469 kts 98°
2026-05-03 20:19 40.61940 8.30311 34930 ft 468 kts 103°
2026-05-03 20:19 40.61331 8.34516 35084 ft 469 kts 103°
2026-05-03 20:19 40.60722 8.38728 35114 ft 469 kts 103°
2026-05-03 20:20 40.59501 8.47149 35115 ft 468 kts 103°
2026-05-03 20:20 40.58264 8.55563 35118 ft 468 kts 103°
2026-05-03 20:21 40.57013 8.63979 35125 ft 469 kts 103°
2026-05-03 20:21 40.55765 8.72386 35130 ft 469 kts 103°
2026-05-03 20:22 40.54512 8.80795 35134 ft 469 kts 103°
2026-05-03 20:22 40.53238 8.89261 35134 ft 469 kts 103°
2026-05-03 20:23 40.51960 8.97671 35139 ft 469 kts 103°
2026-05-03 20:23 40.50676 9.06090 35143 ft 470 kts 103°
2026-05-03 20:24 40.49389 9.14498 35153 ft 470 kts 103°
2026-05-03 20:24 40.48092 9.22927 35158 ft 471 kts 103°
2026-05-03 20:25 40.46798 9.31349 35152 ft 471 kts 103°
2026-05-03 20:25 40.45495 9.39773 35154 ft 471 kts 103°
2026-05-03 20:26 40.44179 9.48200 35160 ft 471 kts 103°
2026-05-03 20:26 40.42855 9.56635 35161 ft 472 kts 103°
2026-05-03 20:27 40.41532 9.65068 35167 ft 472 kts 103°
2026-05-03 20:27 40.40193 9.73504 35167 ft 472 kts 103°
2026-05-03 20:28 40.38848 9.81942 35164 ft 472 kts 103°
2026-05-03 20:28 40.37501 9.90376 35167 ft 473 kts 103°
2026-05-03 20:29 40.36145 9.98816 35164 ft 473 kts 103°
2026-05-03 20:29 40.34785 10.07261 35164 ft 474 kts 103°
2026-05-03 20:30 40.33408 10.15709 35165 ft 474 kts 103°
2026-05-03 20:30 40.32023 10.24156 35170 ft 474 kts 103°
2026-05-03 20:31 40.30643 10.32603 35174 ft 474 kts 103°
2026-05-03 20:31 40.29261 10.41049 35176 ft 474 kts 103°
2026-05-03 20:32 40.27861 10.49498 35174 ft 475 kts 103°
2026-05-03 20:32 40.26457 10.57956 35179 ft 475 kts 103°
2026-05-03 20:33 40.25045 10.66412 35181 ft 476 kts 103°
2026-05-03 20:33 40.23616 10.74921 35184 ft 476 kts 103°
2026-05-03 20:34 40.22183 10.83378 35183 ft 476 kts 103°
2026-05-03 20:34 40.20753 10.91828 35187 ft 476 kts 102°
2026-05-03 20:35 40.19321 11.00278 35190 ft 476 kts 102°
2026-05-03 20:35 40.17874 11.08721 35190 ft 476 kts 103°
2026-05-03 20:36 40.16411 11.17162 35186 ft 476 kts 103°
2026-05-03 20:36 40.14952 11.25608 35191 ft 476 kts 102°
2026-05-03 20:37 40.13491 11.34055 35191 ft 477 kts 102°
2026-05-03 20:37 40.12020 11.42506 35191 ft 477 kts 103°
2026-05-03 20:38 40.10780 11.49586 35196 ft 478 kts 103°
2026-05-03 20:38 40.09283 11.58049 35196 ft 478 kts 103°
2026-05-03 20:39 40.07792 11.66514 35197 ft 479 kts 103°
2026-05-03 20:39 40.06293 11.74988 35202 ft 479 kts 103°
2026-05-03 20:40 40.04788 11.83465 35206 ft 480 kts 103°
2026-05-03 20:40 40.03271 11.91943 35207 ft 480 kts 103°
2026-05-03 20:41 40.01743 12.00426 35201 ft 481 kts 103°
2026-05-03 20:41 40.00218 12.08922 35206 ft 481 kts 103°
2026-05-03 20:42 39.98680 12.17421 35207 ft 482 kts 103°
2026-05-03 20:42 39.97128 12.25929 35206 ft 483 kts 103°
2026-05-03 20:43 39.95566 12.34449 35204 ft 483 kts 103°
2026-05-03 20:43 39.93994 12.42977 35205 ft 484 kts 103°
2026-05-03 20:44 39.92421 12.51510 35210 ft 485 kts 103°
2026-05-03 20:44 39.90838 12.60051 35209 ft 486 kts 103°
2026-05-03 20:45 39.89243 12.68604 35210 ft 486 kts 103°
2026-05-03 20:45 39.87635 12.77163 35209 ft 487 kts 103°
2026-05-03 20:46 39.86023 12.85732 35214 ft 488 kts 102°
2026-05-03 20:46 39.84409 12.94307 35213 ft 488 kts 102°
2026-05-03 20:47 39.82776 13.02896 35215 ft 489 kts 102°
2026-05-03 20:47 39.81140 13.11497 35219 ft 490 kts 102°
2026-05-03 20:48 39.79508 13.20096 35221 ft 490 kts 102°
2026-05-03 20:48 39.77852 13.28698 35220 ft 491 kts 102°
2026-05-03 20:49 39.76183 13.37302 35221 ft 491 kts 102°
2026-05-03 20:49 39.74512 13.45913 35222 ft 491 kts 102°
2026-05-03 20:50 39.72829 13.54577 35226 ft 492 kts 102°
2026-05-03 20:50 39.71154 13.63196 35227 ft 492 kts 101°
2026-05-03 20:51 39.69468 13.71808 35228 ft 492 kts 101°
2026-05-03 20:51 39.67764 13.80415 35229 ft 492 kts 101°
2026-05-03 20:52 39.66052 13.89029 35222 ft 493 kts 101°
2026-05-03 20:52 39.64347 13.97636 35226 ft 493 kts 101°
2026-05-03 20:53 39.62634 14.06238 35227 ft 493 kts 101°
2026-05-03 20:53 39.60911 14.14838 35229 ft 493 kts 101°
2026-05-03 20:54 39.59186 14.23436 35234 ft 492 kts 101°
2026-05-03 20:54 39.56585 14.36323 35237 ft 492 kts 101°
2026-05-03 20:55 39.54838 14.44900 35238 ft 492 kts 101°
2026-05-03 20:55 39.53086 14.53479 35230 ft 492 kts 101°
2026-05-03 20:56 39.51328 14.62044 35237 ft 492 kts 101°
2026-05-03 20:56 39.49561 14.70609 35235 ft 492 kts 100°
2026-05-03 20:57 39.47794 14.79167 35233 ft 493 kts 100°
2026-05-03 20:57 39.46011 14.87732 35234 ft 493 kts 100°
2026-05-03 20:58 39.44222 14.96302 35236 ft 493 kts 100°
2026-05-03 20:58 39.42428 15.04866 35233 ft 493 kts 100°
2026-05-03 20:59 39.40628 15.13428 35237 ft 493 kts 100°
2026-05-03 20:59 39.38806 15.22040 35237 ft 494 kts 100°
2026-05-03 21:00 39.37610 15.27711 35241 ft 494 kts 100°
2026-05-03 21:00 39.35188 15.39168 35230 ft 494 kts 99°
2026-05-03 21:01 39.33359 15.47727 35235 ft 494 kts 99°
2026-05-03 21:01 39.31537 15.56270 35249 ft 494 kts 99°
2026-05-03 21:02 39.29695 15.64820 35239 ft 494 kts 100°
2026-05-03 21:02 39.27846 15.73356 35243 ft 494 kts 100°
2026-05-03 21:03 39.25988 15.81902 35241 ft 494 kts 99°
2026-05-03 21:03 39.24131 15.90447 35246 ft 495 kts 99°
2026-05-03 21:04 39.22269 15.98989 35251 ft 495 kts 100°
2026-05-03 21:04 39.20395 16.07534 35255 ft 495 kts 100°
2026-05-03 21:05 39.18514 16.16066 35253 ft 495 kts 100°
2026-05-03 21:05 39.16619 16.24589 35253 ft 495 kts 100°
2026-05-03 21:06 39.14729 16.33116 35255 ft 495 kts 100°
2026-05-03 21:06 39.12839 16.41635 35252 ft 494 kts 100°
2026-05-03 21:07 39.10939 16.50153 35249 ft 495 kts 100°
2026-05-03 21:07 39.09023 16.58673 35247 ft 495 kts 100°
2026-05-03 21:08 39.07103 16.67173 35234 ft 495 kts 100°
2026-05-03 21:08 39.05167 16.75731 35218 ft 495 kts 100°
2026-05-03 21:09 39.03243 16.84232 35208 ft 495 kts 100°
2026-05-03 21:09 39.01317 16.92729 35203 ft 495 kts 101°
2026-05-03 21:10 38.99378 17.01212 35199 ft 494 kts 101°
2026-05-03 21:10 38.97423 17.09679 35200 ft 494 kts 101°
2026-05-03 21:11 38.95800 17.16724 35200 ft 494 kts 101°
2026-05-03 21:11 38.93852 17.25188 35201 ft 494 kts 101°
2026-05-03 21:12 38.91885 17.33643 35202 ft 494 kts 101°
2026-05-03 21:12 38.89912 17.42097 35203 ft 494 kts 101°
2026-05-03 21:13 38.87942 17.50542 35200 ft 494 kts 101°
2026-05-03 21:13 38.85969 17.58978 35201 ft 494 kts 101°
2026-05-03 21:14 38.83975 17.67469 35201 ft 494 kts 101°
2026-05-03 21:14 38.81984 17.75888 35184 ft 494 kts 101°
2026-05-03 21:15 38.79978 17.84313 35199 ft 493 kts 101°
2026-05-03 21:15 38.77976 17.92727 35199 ft 493 kts 101°
2026-05-03 21:16 38.75973 18.01130 35204 ft 493 kts 101°
2026-05-03 21:16 38.73957 18.09522 35203 ft 493 kts 101°
2026-05-03 21:17 38.72282 18.16489 35205 ft 492 kts 101°
2026-05-03 21:17 38.69934 18.26279 35197 ft 492 kts 101°
2026-05-03 21:18 38.67915 18.34646 35198 ft 492 kts 101°
2026-05-03 21:18 38.65882 18.43000 35199 ft 492 kts 101°
2026-05-03 21:19 38.63839 18.51356 35199 ft 491 kts 101°
2026-05-03 21:19 38.61794 18.59689 35195 ft 491 kts 101°
2026-05-03 21:20 38.59751 18.68022 35198 ft 491 kts 101°
2026-05-03 21:20 38.57693 18.76353 35198 ft 491 kts 101°
2026-05-03 21:21 38.55640 18.84670 35192 ft 491 kts 101°
2026-05-03 21:21 38.53574 18.92987 35186 ft 491 kts 101°
2026-05-03 21:22 38.51619 19.01323 35187 ft 485 kts 94°
2026-05-03 21:22 38.50302 19.09760 35188 ft 484 kts 94°
2026-05-03 21:23 38.48971 19.18180 35187 ft 484 kts 94°
2026-05-03 21:23 38.47622 19.26607 35190 ft 484 kts 95°
2026-05-03 21:24 38.46269 19.35024 35189 ft 485 kts 95°
2026-05-03 21:24 38.44914 19.43451 35186 ft 485 kts 95°
2026-05-03 21:25 38.43556 19.51885 35189 ft 485 kts 95°
2026-05-03 21:25 38.42190 19.60325 35186 ft 486 kts 95°
2026-05-03 21:26 38.40799 19.68825 35186 ft 487 kts 95°
2026-05-03 21:26 38.39416 19.77216 35190 ft 487 kts 95°
2026-05-03 21:27 38.38014 19.85726 35189 ft 488 kts 95°
2026-05-03 21:27 38.36614 19.94190 35191 ft 488 kts 95°
2026-05-03 21:28 38.35207 20.02655 35192 ft 489 kts 95°
2026-05-03 21:28 38.33790 20.11134 35197 ft 489 kts 95°
2026-05-03 21:29 38.32371 20.19607 35203 ft 489 kts 95°
2026-05-03 21:29 38.30969 20.28075 35202 ft 488 kts 94°
2026-05-03 21:30 38.29828 20.36573 35201 ft 486 kts 91°
2026-05-03 21:30 38.28840 20.45079 35198 ft 485 kts 91°
2026-05-03 21:31 38.27815 20.53570 35197 ft 486 kts 92°
2026-05-03 21:31 38.26716 20.62059 35201 ft 486 kts 92°
2026-05-03 21:32 38.25578 20.70541 35202 ft 486 kts 92°
2026-05-03 21:32 38.24467 20.79016 35208 ft 485 kts 92°
2026-05-03 21:33 38.23365 20.87479 35211 ft 485 kts 92°
2026-05-03 21:33 38.22252 20.95937 35211 ft 485 kts 92°
2026-05-03 21:34 38.21115 21.04391 35209 ft 485 kts 92°
2026-05-03 21:34 38.19983 21.12826 35208 ft 484 kts 92°
2026-05-03 21:35 38.18851 21.21268 35206 ft 484 kts 92°
2026-05-03 21:35 38.17703 21.29758 35206 ft 484 kts 92°
2026-05-03 21:36 38.16555 21.38183 35202 ft 484 kts 93°
2026-05-03 21:36 38.14555 21.46445 35197 ft 498 kts 110°
2026-05-03 21:37 38.11497 21.54351 35196 ft 499 kts 110°
2026-05-03 21:37 38.08435 21.62255 35206 ft 499 kts 111°
2026-05-03 21:38 38.05364 21.70149 35220 ft 499 kts 111°
2026-05-03 21:38 38.02281 21.78051 35225 ft 500 kts 111°
2026-05-03 21:39 37.99198 21.85948 35242 ft 500 kts 111°
2026-05-03 21:39 37.96108 21.93852 34732 ft 502 kts 110°
2026-05-03 21:40 37.94538 21.97862 33534 ft 513 kts 110°
2026-05-03 21:40 37.92943 22.01922 32636 ft 515 kts 110°
2026-05-03 21:40 37.91337 22.06001 31590 ft 520 kts 110°
2026-05-03 21:40 37.89715 22.10114 30555 ft 524 kts 110°
2026-05-03 21:41 37.88083 22.14252 29614 ft 524 kts 110°
2026-05-03 21:41 37.86463 22.18331 29081 ft 515 kts 110°
2026-05-03 21:41 37.84862 22.22355 28391 ft 509 kts 110°
2026-05-03 21:41 37.83279 22.26334 27713 ft 504 kts 110°
2026-05-03 21:42 37.81714 22.30273 27063 ft 498 kts 110°
2026-05-03 21:42 37.80171 22.34165 26406 ft 493 kts 110°
2026-05-03 21:42 37.78637 22.38034 25757 ft 488 kts 110°
2026-05-03 21:42 37.77118 22.41855 25113 ft 484 kts 111°
2026-05-03 21:43 37.75614 22.45629 24486 ft 477 kts 111°
2026-05-03 21:43 37.74124 22.49360 23861 ft 473 kts 111°
2026-05-03 21:43 37.72652 22.53048 23190 ft 467 kts 111°
2026-05-03 21:43 37.71196 22.56683 22621 ft 459 kts 112°
2026-05-03 21:44 37.69787 22.60250 22107 ft 449 kts 111°
2026-05-03 21:44 37.68475 22.63790 21586 ft 441 kts 109°
2026-05-03 21:44 37.67243 22.67288 21093 ft 432 kts 109°
2026-05-03 21:44 37.66055 22.70736 20594 ft 425 kts 109°
2026-05-03 21:45 37.64881 22.74139 20104 ft 419 kts 109°
2026-05-03 21:45 37.64094 22.76402 19781 ft 415 kts 110°
2026-05-03 21:45 37.62930 22.79706 19287 ft 409 kts 110°
2026-05-03 21:45 37.61768 22.82962 18799 ft 404 kts 110°
2026-05-03 21:46 37.60614 22.86175 18273 ft 400 kts 111°
2026-05-03 21:46 37.59471 22.89348 17758 ft 394 kts 111°
2026-05-03 21:46 37.58348 22.92461 17256 ft 387 kts 111°
2026-05-03 21:46 37.57240 22.95530 16757 ft 382 kts 111°
2026-05-03 21:47 37.56147 22.98557 16257 ft 378 kts 111°
2026-05-03 21:47 37.55066 23.01553 15756 ft 373 kts 111°
2026-05-03 21:47 37.53995 23.04518 15251 ft 370 kts 111°
2026-05-03 21:47 37.52937 23.07449 14760 ft 366 kts 111°
2026-05-03 21:48 37.51889 23.10348 14263 ft 362 kts 111°
2026-05-03 21:48 37.50849 23.13220 13754 ft 359 kts 111°
2026-05-03 21:48 37.49833 23.16073 13245 ft 354 kts 108°
2026-05-03 21:48 37.49189 23.19013 12767 ft 344 kts 95°
2026-05-03 21:49 37.49071 23.21978 12295 ft 335 kts 82°
2026-05-03 21:49 37.49444 23.24834 11828 ft 326 kts 70°
2026-05-03 21:49 37.50256 23.27457 11381 ft 319 kts 58°
2026-05-03 21:49 37.51317 23.29892 10938 ft 316 kts 57°
2026-05-03 21:50 37.52361 23.32293 10722 ft 305 kts 57°
2026-05-03 21:50 37.53355 23.34598 10534 ft 295 kts 57°
2026-05-03 21:50 37.54322 23.36847 10284 ft 290 kts 57°
2026-05-03 21:50 37.55280 23.39077 10076 ft 288 kts 57°
2026-05-03 21:51 37.56238 23.41301 9937 ft 288 kts 58°
2026-05-03 21:51 37.57194 23.43517 9807 ft 287 kts 57°
2026-05-03 21:51 37.58153 23.45737 9349 ft 292 kts 58°
2026-05-03 21:51 37.59110 23.47961 9039 ft 285 kts 58°
2026-05-03 21:52 37.60032 23.50121 8899 ft 274 kts 58°
2026-05-03 21:52 37.60927 23.52219 8758 ft 262 kts 57°
2026-05-03 21:52 37.61771 23.54198 8534 ft 251 kts 57°
2026-05-03 21:52 37.62579 23.56088 8036 ft 246 kts 57°
2026-05-03 21:53 37.63394 23.57989 7537 ft 241 kts 57°
2026-05-03 21:53 37.64183 23.59827 7079 ft 235 kts 57°
2026-05-03 21:53 37.64959 23.61636 6739 ft 234 kts 57°
2026-05-03 21:53 37.65730 23.63437 6436 ft 232 kts 57°
2026-05-03 21:54 37.66496 23.65228 6082 ft 231 kts 57°
2026-05-03 21:54 37.67252 23.66997 5749 ft 229 kts 57°
2026-05-03 21:54 37.68044 23.68720 5448 ft 224 kts 50°
2026-05-03 21:54 37.69129 23.70099 5102 ft 219 kts 35°
2026-05-03 21:55 37.70391 23.71303 5008 ft 232 kts 33°
2026-05-03 21:55 37.71638 23.72473 5010 ft 215 kts 34°
2026-05-03 21:55 37.72800 23.73567 5005 ft 205 kts 34°
2026-05-03 21:55 37.73915 23.74619 4841 ft 195 kts 33°
2026-05-03 21:56 37.74981 23.75625 4609 ft 188 kts 33°
2026-05-03 21:56 37.76012 23.76599 4371 ft 182 kts 33°
2026-05-03 21:56 37.76999 23.77532 4128 ft 172 kts 33°
2026-05-03 21:56 37.77945 23.78426 3898 ft 169 kts 33°
2026-05-03 21:57 37.78882 23.79311 3664 ft 168 kts 33°
2026-05-03 21:57 37.79821 23.80198 3435 ft 169 kts 32°
2026-05-03 21:57 37.80762 23.81089 3208 ft 169 kts 33°
2026-05-03 21:57 37.81703 23.81978 2969 ft 169 kts 33°
2026-05-03 21:58 37.82645 23.82871 2735 ft 170 kts 34°
2026-05-03 21:58 37.83587 23.83763 2505 ft 168 kts 33°
2026-05-03 21:58 37.84499 23.84628 2283 ft 159 kts 32°
2026-05-03 21:58 37.85365 23.85449 2070 ft 154 kts 32°
2026-05-03 21:59 37.86216 23.86255 1855 ft 153 kts 33°
2026-05-03 21:59 37.87049 23.87046 1654 ft 144 kts 33°
2026-05-03 21:59 37.87833 23.87790 1454 ft 139 kts 33°
2026-05-03 21:59 37.88603 23.88519 1254 ft 139 kts 33°
2026-05-03 22:00 37.89390 23.89265 1044 ft 143 kts 34°
2026-05-03 22:00 37.90187 23.90021 832 ft 145 kts 33°
2026-05-03 22:00 37.91004 23.90798 656 ft 147 kts 34°
2026-05-03 22:00 37.91816 23.91576 466 ft 147 kts 33°
2026-05-03 22:01 37.92629 23.92352 316 ft 146 kts 32°
2026-05-03 22:01 37.93361 23.93036 292 ft 112 kts 38°
2026-05-03 22:01 37.93761 23.93414 294 ft 30 kts 37°
2026-05-03 22:01 37.93895 23.93605 296 ft 29 kts 59°
2026-05-03 22:02 37.93976 23.93826 302 ft 26 kts 66°
2026-05-03 22:02 37.94065 23.93988 304 ft 22 kts 37°
2026-05-03 22:02 37.94192 23.94110 302 ft 23 kts 36°
2026-05-03 22:02 37.94327 23.94234 303 ft 25 kts 38°
2026-05-03 22:03 37.94467 23.94369 305 ft 26 kts 36°
2026-05-03 22:03 37.94616 23.94504 304 ft 24 kts 38°
2026-05-03 22:03 37.94685 23.94602 304 ft 14 kts 81°
2026-05-03 22:03 37.94633 23.94714 302 ft 16 kts 128°
2026-05-03 22:04 37.94561 23.94832 302 ft 18 kts 127°
2026-05-03 22:04 37.94484 23.94964 302 ft 19 kts 126°
2026-05-03 22:04 37.94400 23.95106 303 ft 21 kts 127°
2026-05-03 22:04 37.94309 23.95259 302 ft 23 kts 127°
2026-05-03 22:05 37.94211 23.95423 301 ft 24 kts 127°
2026-05-03 22:05 37.94133 23.95547 300 ft 11 kts 145°
2026-05-03 22:05 37.94056 23.95526 303 ft 13 kts 216°
2026-05-03 22:05 37.93980 23.95451 300 ft 15 kts 218°
2026-05-03 22:06 37.93905 23.95364 303 ft 14 kts 236°
2026-05-03 22:06 37.93869 23.95260 302 ft 12 kts 249°
2026-05-03 22:06 37.93832 23.95184 300 ft 9 kts 221°
2026-05-03 22:06 37.93788 23.95140 300 ft 7 kts 218°
2026-05-03 22:07 37.93747 23.95100 301 ft 8 kts 217°
2026-05-03 22:07 37.93709 23.95056 302 ft 6 kts 251°
2026-05-03 22:07 37.93720 23.95019 303 ft 4 kts 303°
2026-05-03 22:07 37.93732 23.94998 301 ft 3 kts 309°
2026-05-03 22:08 37.93741 23.94984 301 ft 2 kts 308°
2026-05-03 22:08 37.93747 23.94974 301 ft 0 kts 307°